[[{"header":{"parameterUnit":"m.s-1","parameterCategory":1,"la1":30.2991,"la2":30.254,"lo1":-89.0895,"lo2":-89.0444,"dy":0.0017,"dx":0.0017,"nx":28,"ny":28,"refTime":"2023-09-28T03:00:00:Z","depth":0,"parameterNumber":2,"parameterNumberName":"U-component_of_WINDS"},"data":[0,0,0,0,0,0,0,0,0,0,0,0,0,0,0,0,0,0,0,0,0,0,0,0,0,0,0,0,0,0,0,0,0,0,0,0,0,0,0,0,0,0,0,0,0,0,0,0,0,0,0,0,0,0,0,0,0,0,-2.7797,-2.7797,0,-2.7754,-2.7753,-2.7753,-2.7648,-2.7646,-2.7644,-2.7641,-2.76,-2.7601,-2.7602,0,0,0,0,0,0,0,0,0,0,0,0,0,-2.7795,-2.7796,-2.7797,-2.7797,-2.7796,-2.7754,-2.7753,-2.7753,-2.7648,-2.7646,-2.7643,-2.764,-2.76,-2.7601,-2.7602,0,0,0,0,0,0,0,0,0,0,0,0,0,-2.7779,-2.7796,-2.7797,-2.7739,-2.7733,-2.7754,-2.7753,-2.7753,-2.7649,-2.7646,-2.7642,-2.7639,-2.76,-2.7601,-2.7602,-2.7677,0,0,-2.7607,-2.7607,0,0,0,0,0,0,0,0,-2.778,-2.7779,-2.7748,-2.7743,-2.7737,-2.7703,-2.7737,-2.7727,-2.765,-2.7681,-2.7641,-2.7638,-2.7637,-2.7635,-2.7635,-2.7675,-2.7674,-2.7607,-2.7608,-2.7608,-2.7609,0,0,0,0,0,0,0,-2.7781,-2.778,-2.778,-2.7748,-2.7741,-2.7717,-2.7711,-2.7735,-2.7678,-2.7678,-2.767,-2.7666,-2.7634,-2.7634,-2.7633,-2.7673,-2.7607,-2.7608,-2.7609,-2.761,-2.7778,-2.7781,0,0,0,0,0,0,-2.779,-2.7782,-2.7782,-2.7779,-2.775,-2.7719,-2.7713,-2.7717,-2.7678,-2.7669,-2.7669,-2.7662,-2.7633,-2.7631,-2.7631,-2.7719,-2.7608,-2.761,-2.7611,-2.7774,-2.7779,-2.7783,0,0,0,0,0,0,-2.779,-2.7791,-2.7783,-2.7778,-2.7775,-2.7723,-2.7729,-2.7718,-2.7718,-2.7671,-2.7661,-2.7679,-2.763,-2.7629,-2.7667,-2.7716,-2.761,-2.7612,-2.777,-2.7776,-2.7781,-2.7895,0,0,0,0,0,0,-2.7791,-2.7792,-2.7818,-2.778,-2.7776,-2.7819,-2.7732,-2.772,-2.772,-2.771,-2.7678,-2.7669,-2.7627,-2.7666,-2.7669,-2.7717,-2.7613,-2.7765,-2.7772,-2.7779,-2.7887,-2.7904,-2.7918,0,0,0,0,0,-2.7791,-2.7852,-2.782,-2.7821,-2.7808,-2.7822,-2.782,-2.777,-2.7724,-2.7752,-2.7723,-2.767,-2.771,-2.7671,-2.7673,-2.7722,-2.7762,-2.777,-2.7778,-2.788,-2.7901,-2.7918,0,0,0,0,0,0,-2.7898,-2.7846,-2.781,-2.786,-2.7846,-2.7804,-2.7837,-2.7793,-2.7792,-2.7783,-2.7721,-2.7715,-2.7763,-2.7745,-2.7702,-2.7795,-2.7728,-2.7737,-2.7804,-2.7824,-2.7839,-2.7843,-2.7614,0,0,0,0,0,-2.7927,-2.7942,-2.7896,-2.7944,-2.7939,-2.789,-2.7894,-2.7856,-2.784,-2.7834,-2.7807,-2.7795,-2.7805,-2.7813,-2.7819,-2.7883,-2.7877,-2.7919,-2.7934,-2.7948,-2.7957,-2.7994,-2.8013,-2.7809,-2.7809,-2.7809,0,0,-2.7988,-2.7962,-2.7974,-2.7965,-2.795,-2.7969,-2.7886,-2.7908,-2.7922,-2.7838,-2.7873,-2.7854,-2.7836,-2.7889,-2.7911,-2.7876,-2.8012,-2.7958,-2.7969,-2.7971,-2.8004,-2.8024,-2.8041,-2.7815,-2.7814,-2.7813,0,0,-2.811,-2.8089,-2.8129,-2.8117,-2.8095,-2.8062,-2.8072,-2.8038,-2.8021,-2.8055,-2.7994,-2.8011,-2.8028,-2.8019,-2.8017,-2.8138,-2.8092,-2.8142,-2.8226,-2.8262,-2.8279,-2.8293,-2.834,-2.8357,-2.8151,-2.8151,-2.8152,0,-2.8189,-2.8213,-2.8156,-2.8183,-2.8183,-2.8107,-2.8149,-2.814,-2.8122,-2.8125,-2.8086,-2.8109,-2.8091,-2.8143,-2.8173,-2.8172,-2.8184,-2.8146,-2.828,-2.8294,-2.8306,-2.8351,-2.8368,-2.8158,-2.8157,-2.8156,-2.8156,0,-2.8313,-2.8331,-2.8366,-2.8351,-2.8354,-2.8389,-2.834,-2.835,-2.8313,-2.8285,-2.8323,-2.83,-2.8302,-2.8311,-2.8274,-2.8359,-2.8339,-2.8291,-2.8223,-2.8333,-2.8374,-2.839,-2.8167,-2.8165,-2.8163,-2.8161,0,0,-2.85,-2.8455,-2.8469,-2.8463,-2.8435,-2.8449,-2.8482,-2.8483,-2.8495,-2.8486,-2.8514,-2.8532,-2.8489,-2.8487,-2.8449,-2.8481,-2.8584,-2.8429,-2.8428,-2.8462,-2.868,-2.8719,-2.8739,-2.8552,-2.8555,-2.8557,-2.8683,0,-2.8617,-2.8669,-2.862,-2.8683,-2.8701,-2.8631,-2.866,-2.8648,-2.8623,-2.8636,-2.8609,-2.8625,-2.8564,-2.8563,-2.8591,-2.8565,-2.8627,-2.8555,-2.8581,-2.8583,-2.859,-2.8759,-2.8799,-2.8919,-2.8698,-2.8701,-2.8703,0,-2.8759,-2.8758,-2.8823,-2.8794,-2.88,-2.8826,-2.8826,-2.8839,-2.8825,-2.8805,-2.8804,-2.8758,-2.8791,-2.8724,-2.877,-2.8722,-2.873,-2.8719,-2.8723,-2.8725,-2.8651,-2.877,-2.8955,-2.8975,-2.8726,-2.8725,-2.8723,0,-2.8894,-2.8908,-2.8949,-2.8946,-2.8912,-2.8934,-2.8921,-2.8903,-2.8909,-2.8909,-2.8912,-2.8916,-2.892,-2.8925,-2.8883,-2.8837,-2.8937,-2.8864,-2.8924,-2.8926,-2.895,-2.895,-2.9143,-2.895,-2.895,-2.895,-2.8949,0,-2.9032,-2.9075,-2.901,-2.9036,-2.9084,-2.9028,-2.9078,-2.9058,-2.9043,-2.9066,-2.9005,-2.9028,-2.897,-2.8988,-2.8955,-2.9001,-2.9002,-2.8989,-2.8981,-2.8997,-2.8999,-2.9003,-2.8995,-2.8955,-2.8953,-2.8953,-2.8952,0,-2.9191,-2.9148,-2.919,-2.9155,-2.9148,-2.9185,-2.9156,-2.918,-2.9152,-2.9182,-2.9186,-2.9143,-2.9161,-2.9119,-2.9131,-2.911,-2.9177,-2.9153,-2.9182,-2.9176,-2.924,-2.9236,-2.9444,-2.9471,-2.9259,-2.9261,-2.9262,0,-2.9282,-2.9314,-2.9284,-2.9295,-2.9285,-2.9303,-2.9308,-2.9256,-2.9265,-2.9253,-2.928,-2.9292,-2.93,-2.9334,-2.9305,-2.9315,-2.9293,-2.9366,-2.9294,-2.9311,-2.9299,-2.9299,-2.9304,-2.9381,-2.9384,-2.9386,-2.9388,0,-2.9451,-2.9429,-2.9439,-2.9443,-2.9451,-2.9452,-2.9448,-2.9461,-2.9405,-2.9419,-2.9437,-2.9443,-2.9456,-2.9472,-2.9476,-2.9464,-2.9419,-2.941,-2.9425,-2.9443,-2.946,-2.9456,-2.9226,-2.9406,-2.9404,-2.9403,-2.9402,-2.9401,-2.9581,-2.9608,-2.9592,-2.9606,-2.9598,-2.9597,-2.9619,-2.9594,-2.9607,-2.9614,-2.9582,-2.9609,-2.9597,-2.9597,-2.9592,-2.9613,-2.9581,-2.9601,-2.9607,-2.9614,-2.9627,-2.9455,-2.9613,-2.9613,-2.9612,-2.9612,-2.9611,0,-2.975,-2.9736,-2.975,-2.9747,-2.976,-2.9713,-2.9708,-2.9722,-2.9745,-2.9738,-2.9747,-2.977,-2.9786,-2.9759,-2.977,-2.9793,-2.9773,-2.9798,-2.9798,-2.9797,-2.9653,-2.964,-2.9815,-2.9815,-2.9815,-2.9815,-2.9815,-2.9815,-2.9839,-2.9883,-2.986,-2.9901,-2.9887,-2.9912,-2.9914,-2.9913,-2.9907,-2.9936,-2.9948,-2.993,-2.9916,-2.9927,-2.994,-2.9932,-2.9941,-2.9975,-2.996,-2.9826,-2.9806,-2.9788,-2.9776,-2.9976,-2.9976,-3.0103,-3.0104,-3.0105]},{"header":{"parameterUnit":"m.s-1","parameterCategory":1,"la1":30.2991,"la2":30.254,"lo1":-89.0895,"lo2":-89.0444,"dy":0.0017,"dx":0.0017,"nx":28,"ny":28,"refTime":"2023-09-28T03:00:00:Z","depth":0,"parameterNumber":3,"parameterNumberName":"V-component_of_WINDS"},"data":[0,0,0,0,0,0,0,0,0,0,0,0,0,0,0,0,0,0,0,0,0,0,0,0,0,0,0,0,0,0,0,0,0,0,0,0,0,0,0,0,0,0,0,0,0,0,0,0,0,0,0,0,0,0,0,0,0,0,1.2662,1.2662,0,1.2609,1.2609,1.2608,1.2557,1.2556,1.2555,1.2555,1.2495,1.2494,1.2493,0,0,0,0,0,0,0,0,0,0,0,0,0,1.2716,1.2715,1.2663,1.2662,1.2661,1.261,1.2609,1.2608,1.2557,1.2556,1.2555,1.2554,1.2496,1.2495,1.2493,0,0,0,0,0,0,0,0,0,0,0,0,0,1.2681,1.2715,1.2663,1.2629,1.2626,1.261,1.2609,1.2608,1.2557,1.2556,1.2555,1.2554,1.2496,1.2495,1.2493,1.2504,0,0,1.2489,1.2488,0,0,0,0,0,0,0,0,1.2683,1.2679,1.2635,1.2632,1.2628,1.2589,1.2606,1.2573,1.2557,1.2583,1.2555,1.2553,1.2527,1.2523,1.2515,1.2501,1.2499,1.2489,1.2488,1.2487,1.2487,0,0,0,0,0,0,0,1.2685,1.2681,1.2641,1.2634,1.263,1.2616,1.261,1.2599,1.2561,1.2581,1.2577,1.2571,1.2525,1.2516,1.2513,1.2498,1.2489,1.2487,1.2486,1.2486,1.2489,1.249,0,0,0,0,0,0,1.2693,1.2683,1.2643,1.264,1.2654,1.2616,1.2609,1.2602,1.2561,1.2554,1.2572,1.2569,1.2519,1.2515,1.2511,1.2519,1.2487,1.2486,1.2485,1.2488,1.2489,1.249,0,0,0,0,0,0,1.2695,1.269,1.2645,1.266,1.2654,1.2616,1.2609,1.2602,1.2593,1.2555,1.2547,1.2571,1.2518,1.2513,1.2506,1.2516,1.2485,1.2484,1.2487,1.2488,1.249,1.2537,0,0,0,0,0,0,1.2696,1.2691,1.2695,1.2661,1.2653,1.2643,1.2609,1.2601,1.2591,1.2587,1.2552,1.2545,1.2517,1.2509,1.2505,1.2514,1.2483,1.2486,1.2487,1.2489,1.2534,1.254,1.2545,0,0,0,0,0,1.2698,1.271,1.2696,1.2691,1.2658,1.2643,1.2639,1.2608,1.2593,1.2596,1.2571,1.2546,1.2517,1.2508,1.2503,1.2512,1.2485,1.2487,1.2489,1.2532,1.2539,1.2544,0,0,0,0,0,0,1.2745,1.2705,1.2689,1.269,1.2671,1.2635,1.2638,1.2616,1.26,1.2596,1.2558,1.255,1.2547,1.253,1.2521,1.252,1.2497,1.2498,1.2531,1.2538,1.2543,1.2546,1.2481,0,0,0,0,0,1.2756,1.2748,1.2713,1.2717,1.2709,1.2676,1.2668,1.2647,1.2624,1.2615,1.259,1.2568,1.2554,1.2545,1.253,1.2533,1.2523,1.2536,1.2542,1.2546,1.2546,1.2545,1.255,1.2497,1.2497,1.2497,0,0,1.2776,1.2754,1.2751,1.2726,1.2709,1.2701,1.2669,1.2662,1.2655,1.2614,1.2605,1.2587,1.256,1.2558,1.2555,1.2542,1.256,1.2549,1.2553,1.255,1.2548,1.2553,1.2557,1.2499,1.2498,1.2498,0,0,1.281,1.2794,1.2795,1.2779,1.2753,1.2731,1.2732,1.27,1.2686,1.2678,1.2647,1.2638,1.2615,1.2596,1.2584,1.2613,1.2588,1.261,1.2635,1.2634,1.2638,1.2642,1.265,1.2654,1.2611,1.2611,1.2611,0,1.2839,1.2827,1.2798,1.2792,1.2782,1.2747,1.2747,1.2732,1.2703,1.2695,1.2683,1.2653,1.2632,1.2625,1.2632,1.2624,1.2622,1.2612,1.2641,1.2644,1.2646,1.2654,1.2657,1.2613,1.2613,1.2613,1.2613,0,1.2862,1.2855,1.2859,1.2833,1.2823,1.282,1.2789,1.2783,1.2763,1.2742,1.2734,1.2709,1.2687,1.2685,1.2664,1.2674,1.2667,1.2648,1.2623,1.2654,1.266,1.2663,1.2617,1.2616,1.2615,1.2615,0,0,1.2921,1.2881,1.2882,1.287,1.284,1.2833,1.2829,1.281,1.2804,1.2786,1.278,1.2762,1.2745,1.2731,1.2709,1.2709,1.2731,1.2689,1.2688,1.2696,1.2737,1.275,1.2754,1.2716,1.2716,1.2717,1.2739,0,1.2947,1.2939,1.2913,1.2912,1.2903,1.2871,1.2867,1.2848,1.2829,1.2818,1.2797,1.2784,1.2763,1.2754,1.2753,1.2729,1.2738,1.2727,1.2707,1.2707,1.2712,1.2757,1.277,1.2792,1.2741,1.2742,1.2742,0,1.2976,1.2962,1.296,1.2931,1.2927,1.2924,1.2904,1.2895,1.2873,1.2859,1.2845,1.2821,1.2813,1.2793,1.2781,1.2774,1.2765,1.2752,1.2752,1.2747,1.2724,1.275,1.2799,1.2801,1.2746,1.2746,1.2745,0,1.3016,1.2996,1.2992,1.2983,1.295,1.2949,1.2935,1.2911,1.2902,1.2885,1.2878,1.286,1.2849,1.2835,1.2806,1.2795,1.2797,1.2775,1.2783,1.2783,1.2782,1.2782,1.2827,1.2781,1.2781,1.2781,1.2781,0,1.3047,1.3046,1.301,1.3007,1.3005,1.2976,1.2975,1.2958,1.2938,1.293,1.2902,1.2895,1.2859,1.2847,1.2825,1.2817,1.2813,1.28,1.2793,1.2801,1.2802,1.2792,1.2789,1.2782,1.2782,1.2782,1.2781,0,1.3089,1.3065,1.3059,1.3029,1.3021,1.3021,1.2995,1.299,1.2971,1.2962,1.2958,1.2926,1.2911,1.2882,1.2859,1.2844,1.284,1.2831,1.2848,1.2844,1.2852,1.2851,1.289,1.2893,1.2848,1.2849,1.2849,0,1.3109,1.3108,1.3079,1.3073,1.306,1.3051,1.3041,1.3013,1.3004,1.2979,1.2977,1.2961,1.2946,1.2923,1.2897,1.2879,1.2867,1.2882,1.2864,1.2871,1.2864,1.2863,1.2862,1.2885,1.2886,1.2886,1.2887,0,1.3146,1.3134,1.3123,1.3107,1.3097,1.3083,1.3067,1.3064,1.3031,1.3022,1.3008,1.2997,1.2974,1.2957,1.2936,1.2919,1.2896,1.2893,1.2894,1.29,1.2909,1.2902,1.2856,1.2891,1.2891,1.2891,1.289,1.289,1.3176,1.3173,1.3153,1.314,1.3126,1.3113,1.3107,1.3088,1.3076,1.3056,1.304,1.3027,1.3004,1.2973,1.2958,1.2946,1.2935,1.2937,1.2936,1.2937,1.2939,1.2914,1.2942,1.2942,1.2942,1.2942,1.2942,0,1.3209,1.3195,1.3184,1.3164,1.3154,1.3138,1.312,1.3112,1.3101,1.3083,1.307,1.3053,1.3037,1.301,1.2992,1.2987,1.2976,1.2983,1.2981,1.2977,1.295,1.2951,1.2992,1.2992,1.2992,1.2992,1.2992,1.2992,1.3225,1.322,1.3206,1.3193,1.3178,1.3166,1.3157,1.3144,1.3129,1.3113,1.31,1.3084,1.3062,1.3042,1.3026,1.3018,1.3011,1.3021,1.301,1.2984,1.298,1.2975,1.2975,1.302,1.302,1.3037,1.3038,1.3038]}]]